Theta_e
312 313 313 313 313 314 316 315 316 315 314 313 314 314 315 314 315 315 315 316 317 319 320 320 320 319 316 310 310 324 327 324 316 313 312 308 306 305 303 306 306 303 305 307 308 309 308
311 311 311 312 312 312 313 313 314 315 314 314 312 313 314 315 315 315 314 314 315 317 318 319 319 317 313 302 318 324 323 317 315 312 311 311 309 311 307 307 305 307 307 306 309 308 310
311 311 312 312 313 313 312 313 313 314 314 313 313 313 313 314 314 314 314 314 314 315 317 318 318 316 310 307 318 317 321 316 315 314 311 314 314 310 309 306 309 307 302 305 308 309 309
311 311 311 312 312 312 312 312 312 313 314 314 313 313 312 312 312 313 313 313 313 315 317 318 317 314 306 317 319 316 318 317 316 316 315 316 315 311 309 310 307 303 303 298 307 309 309
310 311 311 312 312 311 311 312 312 312 313 313 313 312 312 311 310 311 312 312 311 314 317 317 313 312 303 316 311 314 316 314 313 314 315 315 312 308 308 302 299 301 295 299 302 308 308
310 310 311 312 311 312 312 312 312 312 312 312 313 313 312 311 311 311 311 310 313 316 317 318 315 306 309 305 310 312 315 317 311 311 309 309 306 302 303 300 292 296 297 299 300 305 306
309 309 309 311 311 311 310 311 311 311 312 312 312 312 313 312 311 311 310 311 309 312 314 308 308 304 309 313 313 309 312 315 313 308 301 305 299 296 300 303 302 300 299 299 304 307 305
310 309 309 309 311 311 310 311 310 311 311 311 312 312 312 312 311 311 309 306 307 313 303 308 306 307 311 313 305 309 312 309 307 301 304 301 298 304 305 305 302 300 298 298 302 306 303
310 310 309 310 310 311 311 311 311 310 311 310 310 311 311 311 311 308 306 307 315 316 302 301 304 304 306 309 305 306 309 308 304 301 302 298 302 307 304 302 299 299 297 298 299 303 304
309 309 310 309 310 310 310 310 310 310 310 310 310 310 309 310 305 308 305 313 316 317 295 293 298 306 307 308 302 309 311 307 304 300 302 302 306 304 303 300 300 295 302 301 300 298 293
309 309 309 310 310 310 310 310 310 310 310 310 310 310 308 308 307 307 313 316 320 317 279 297 302 313 310 304 305 305 311 308 301 301 303 300 302 301 300 300 302 298 304 302 301 298 298
308 309 309 310 309 309 309 309 309 309 309 309 309 310 309 306 307 309 314 314 316 292 281 294 304 302 302 304 304 306 305 309 308 303 304 302 307 305 304 304 304 305 303 303 301 298 291
307 308 309 309 309 309 309 309 309 309 309 309 309 309 308 306 302 311 313 308 292 283 294 291 297 302 300 300 300 302 300 299 298 294 296 300 301 305 306 301 304 303 299 291 289 290 289
307 308 308 309 309 309 309 309 309 309 309 308 308 308 308 305 308 310 309 297 282 287 290 299 298 299 298 300 300 300 299 297 302 300 296 294 292 301 305 302 300 300 298 292 284 285 290
307 307 308 308 309 309 309 309 309 308 308 308 308 306 305 307 310 308 297 285 286 289 294 292 296 294 296 300 299 298 298 298 300 301 295 294 295 304 305 305 304 300 296 302 294 294 290
307 307 307 307 308 308 309 309 308 308 308 308 304 300 301 307 311 303 291 285 290 294 295 295 290 293 293 297 296 297 296 300 300 303 304 300 294 302 303 305 304 301 304 296 297 287 286
306 306 307 307 307 308 308 308 308 308 308 308 301 293 302 307 308 294 284 288 292 296 296 293 292 291 293 295 298 296 296 300 303 302 303 302 299 298 302 299 297 299 297 300 300 297 289
305 305 306 306 307 307 308 308 308 308 308 305 297 287 304 307 290 290 287 290 295 295 297 296 297 295 294 296 296 297 297 300 305 304 299 302 300 294 297 303 304 302 299 299 294 292 296
304 305 305 306 306 306 307 308 308 308 307 302 292 292 304 303 283 284 291 291 292 293 294 294 294 297 298 296 294 298 300 306 306 304 301 303 297 291 293 299 302 299 300 301 301 300 295
304 304 305 306 306 306 306 307 307 307 308 302 292 285 293 296 296 289 288 290 289 295 294 295 295 298 296 295 299 298 299 304 308 305 303 305 299 295 290 294 300 297 298 301 300 294 294
304 304 305 305 304 304 305 307 307 307 307 302 293 288 293 285 288 292 292 291 289 289 294 296 294 295 295 293 295 295 298 301 304 304 305 305 296 298 299 299 299 299 298 298 298 299 295
303 304 303 304 304 304 305 305 307 307 307 299 287 291 295 293 293 291 291 290 289 291 292 290 292 294 296 294 296 293 298 299 299 303 302 305 296 299 296 299 298 296 299 299 299 298 298
303 303 303 303 303 304 304 304 304 306 306 298 296 299 296 291 291 289 290 292 292 294 295 295 295 294 294 297 301 305 304 302 300 298 300 300 298 296 291 298 296 290 296 298 299 301 299
302 302 303 303 303 303 303 304 304 304 305 297 295 299 292 288 291 290 292 292 292 294 293 295 297 295 300 307 307 305 302 300 300 299 304 299 298 297 292 293 284 296 303 302 299 300 301
302 303 303 303 303 303 303 303 303 304 305 301 298 298 293 288 292 292 292 292 294 296 294 295 298 300 305 304 298 293 291 290 293 298 300 302 299 293 290 289 294 296 299 299 298 297 303
303 303 304 304 303 303 302 302 303 303 304 301 298 302 298 291 291 295 292 294 291 293 294 297 301 305 304 297 290 286 283 288 287 291 299 297 298 293 293 287 285 296 302 305 304 293 305
303 303 303 303 303 303 303 302 302 303 304 302 298 303 299 293 297 298 293 293 297 295 294 295 298 298 304 294 290 287 287 292 286 287 290 291 292 289 292 290 295 302 303 305 292 296 308
302 303 302 303 303 303 303 302 302 303 303 301 298 304 300 295 297 299 300 298 297 297 293 297 295 298 297 289 291 291 290 291 289 292 293 291 289 290 293 290 287 305 304 297 305 307 311
302 301 302 302 302 302 303 302 302 302 303 302 297 305 307 301 298 304 304 305 301 302 299 299 298 297 298 295 293 296 293 295 293 287 297 291 295 292 295 295 300 303 305 309 312 310 312
Wind_Speed
15 15 15 15 15 14 15 14 10 9 10 10 10 12 12 13 15 15 15 15 16 15 13 13 15 16 13 7 14 10 7 8 8 10 12 12 10 12 18 13 6 11 14 10 9 6 10
15 16 16 15 15 14 14 12 13 12 10 9 12 12 12 12 12 14 15 15 16 15 13 13 14 15 8 14 10 13 9 9 12 13 12 12 11 11 12 17 12 8 10 13 9 10 7
17 16 16 15 14 15 14 13 11 12 14 12 10 10 12 12 12 14 15 16 16 15 14 14 12 8 12 23 11 5 9 12 14 13 13 10 10 10 13 15 16 11 15 15 15 9 1
18 17 17 16 15 14 14 14 12 12 12 13 13 11 11 12 14 14 16 17 17 17 14 14 10 9 11 14 10 16 14 14 14 11 13 9 5 10 13 16 18 15 18 16 10 16 9
20 18 18 17 16 15 14 13 14 13 12 10 12 12 12 10 14 15 17 20 22 20 14 8 7 8 12 3 12 16 15 17 13 12 12 9 6 11 14 16 13 16 16 15 7 2 8
21 21 19 18 17 17 16 15 15 14 12 10 9 12 13 12 12 13 16 26 20 4 9 11 10 9 9 11 12 16 17 17 15 12 12 12 9 12 14 13 13 7 12 11 7 6 9
22 22 22 20 19 18 19 18 16 14 12 12 12 10 12 12 11 11 15 12 7 7 10 10 2 12 20 11 1 12 18 17 13 16 16 16 12 15 18 18 19 16 9 21 8 6 11
23 24 24 24 22 21 22 20 18 16 12 12 10 9 10 11 10 9 11 8 9 7 12 18 22 25 25 22 9 14 19 17 18 19 19 16 18 18 18 19 17 14 13 18 5 11 5
24 24 25 26 25 23 22 21 19 17 14 12 9 7 7 10 8 9 13 19 19 11 10 19 23 24 27 23 23 17 21 23 19 20 19 19 17 19 17 18 11 14 16 16 13 6 9
24 24 24 26 25 24 22 21 20 19 16 13 10 8 6 7 7 10 11 14 16 5 9 14 19 17 23 22 24 26 21 23 18 22 21 20 21 17 10 13 14 15 14 13 10 14 9
24 24 24 23 23 22 22 21 20 19 18 16 12 10 9 11 12 7 9 17 7 5 9 8 7 10 7 28 7 24 25 24 24 22 14 18 21 17 13 15 16 12 2 10 14 14 14
25 25 25 24 23 22 22 21 21 20 19 18 15 12 10 5 8 16 10 14 3 6 14 8 10 9 12 18 28 11 26 22 23 24 21 21 17 16 14 15 16 9 11 14 11 11 11
26 26 25 25 24 23 22 21 20 20 20 18 17 14 13 9 7 12 2 3 7 16 8 13 9 10 13 14 21 23 22 25 22 21 21 20 23 20 15 17 17 9 11 9 9 9 10
27 26 26 26 25 24 23 21 20 20 21 19 18 16 15 11 12 7 1 5 18 16 29 5 8 16 15 15 18 22 22 23 24 24 15 17 16 21 14 17 13 12 15 8 5 3 10
28 28 27 26 25 25 24 23 22 21 21 21 18 9 11 10 12 4 2 15 21 22 21 30 15 10 14 15 15 18 22 21 23 25 20 16 23 18 20 14 18 14 15 15 9 3 6
30 29 28 27 26 26 24 24 23 22 23 21 9 7 12 10 11 7 6 12 29 22 30 23 26 19 14 16 16 15 22 16 21 23 23 18 11 18 18 18 19 16 12 12 7 5 7
30 29 29 29 28 27 27 25 25 24 24 23 7 5 9 14 9 7 13 20 29 33 27 28 27 25 24 18 18 18 17 21 23 23 24 19 12 12 16 17 16 10 12 8 13 11 6
31 30 30 29 30 28 28 27 27 27 26 20 6 7 8 15 12 8 20 37 19 25 31 29 26 27 23 21 19 13 20 18 20 23 27 21 9 14 17 12 15 18 17 17 11 9 5
31 32 31 31 31 30 29 28 30 30 31 11 6 5 8 14 15 17 20 36 35 25 29 33 28 28 20 19 18 19 17 18 14 14 23 19 16 8 17 19 17 16 19 14 16 11 11
32 33 31 31 32 29 30 30 32 33 35 13 7 8 7 13 16 26 26 36 30 28 30 31 28 22 20 18 17 12 17 10 9 14 6 8 13 18 14 12 10 16 18 17 13 8 4
31 30 32 24 26 28 27 29 35 37 37 16 9 8 13 17 24 29 26 16 32 26 31 28 28 30 25 21 17 16 15 23 8 10 4 5 16 20 20 19 19 18 19 19 21 22 16
23 21 23 26 27 27 27 23 32 36 40 17 7 8 16 11 23 27 25 31 31 23 26 32 30 29 24 24 15 6 21 16 12 12 13 5 11 14 21 21 20 24 19 22 20 20 20
27 27 27 28 29 30 29 28 27 28 36 7 6 11 10 18 23 20 27 33 35 24 22 27 30 26 27 22 19 11 5 6 9 20 14 12 8 14 16 16 13 22 19 17 17 19 13
30 30 31 31 32 32 32 32 31 33 32 4 5 9 6 11 18 23 32 35 32 27 24 22 27 28 22 10 16 7 6 10 9 22 9 2 13 10 7 1 23 9 14 16 16 15 16
30 31 32 33 33 34 35 35 34 34 34 14 5 12 9 4 17 24 31 26 28 23 23 24 24 28 19 11 10 5 3 2 8 22 8 8 6 3 5 14 16 17 17 12 13 16 20
28 29 30 32 34 35 36 37 37 36 33 15 9 14 10 10 13 27 16 24 16 18 19 22 23 14 14 12 6 10 6 9 9 6 10 10 9 4 4 12 17 6 12 13 15 16 13
21 25 28 31 35 38 37 37 37 36 34 18 6 23 10 8 13 11 11 16 21 19 14 15 20 12 9 8 9 11 11 13 9 13 7 6 3 10 9 7 5 7 13 15 19 8 7
19 18 16 18 24 32 34 36 36 36 34 20 12 19 13 4 10 6 6 18 15 15 13 12 11 12 10 7 8 9 7 9 14 12 11 8 6 5 5 4 11 6 8 15 8 17 7
9 12 13 19 27 29 31 34 34 34 35 25 7 16 10 1 2 3 7 5 5 19 11 13 15 10 7 9 4 7 5 5 8 9 11 8 10 6 6 3 17 19 12 10 7 8 8
Wind_Direction
303 303 304 299 302 314 314 297 295 293 301 309 322 319 313 318 321 320 319 317 316 311 312 312 318 324 327 267 259 141 159 149 184 210 236 232 232 241 262 286 280 244 265 306 294 318 283
294 291 291 293 298 301 293 311 318 300 291 292 301 307 313 305 314 315 316 312 307 305 308 302 312 319 273 266 265 137 186 172 214 213 230 237 244 287 314 290 288 300 292 285 267 264 279
290 290 288 289 288 292 293 289 287 305 297 285 284 286 302 313 310 311 312 309 305 299 297 292 299 292 263 248 279 313 205 211 220 210 230 231 270 296 279 296 256 268 280 272 280 250 97
286 283 282 283 279 279 285 288 283 280 286 289 282 284 286 304 308 307 309 305 300 290 288 282 279 271 257 277 273 237 225 226 224 227 245 297 309 278 282 290 294 263 259 265 202 263 99
285 284 283 281 276 273 274 278 284 283 278 284 289 282 281 294 301 304 308 303 291 283 275 253 253 227 264 267 228 237 223 219 209 221 227 248 255 260 267 251 265 252 257 237 249 70 162
285 284 282 278 277 277 271 268 271 277 280 270 283 291 287 287 294 303 313 294 274 255 229 225 251 259 236 244 226 218 215 219 203 205 213 227 239 243 240 251 252 269 268 315 265 290 256
283 282 281 280 278 274 273 275 267 267 268 275 277 283 292 284 292 315 323 310 217 188 216 240 211 247 307 223 33 212 199 209 229 204 214 215 228 235 240 239 252 282 278 256 137 214 222
280 277 276 276 275 271 269 268 267 262 260 266 272 279 282 281 292 311 296 271 320 350 293 265 263 258 260 277 277 221 191 197 212 217 209 229 224 240 249 264 266 277 275 279 221 191 224
275 273 272 271 270 268 264 262 261 260 251 254 264 264 303 279 299 280 246 263 304 322 273 282 255 247 239 229 242 249 199 202 208 224 218 223 236 234 217 251 258 259 259 268 343 233 246
275 272 268 266 265 264 263 261 260 259 252 241 241 231 263 282 273 254 249 255 241 297 274 265 258 228 224 221 231 233 214 209 226 221 231 236 237 262 246 248 246 242 248 289 219 275 269
280 275 269 265 261 257 255 253 252 248 249 241 232 213 226 228 329 275 16 351 334 248 281 257 222 129 211 204 162 207 230 198 220 222 217 236 243 239 231 240 230 242 58 296 290 264 279
279 274 270 266 259 253 248 245 241 242 239 237 229 209 206 229 262 268 313 335 270 234 241 243 144 184 215 207 220 239 204 217 224 235 230 241 246 236 228 238 243 232 180 233 258 261 264
275 271 269 266 263 257 251 245 239 234 233 232 227 210 196 226 231 252 82 331 206 226 193 235 197 189 215 207 216 232 207 207 208 219 230 228 243 227 215 227 223 217 252 242 237 238 242
270 268 264 260 256 253 250 243 236 229 225 226 224 212 217 236 238 280 317 204 226 229 233 126 275 199 211 218 206 221 223 209 205 224 219 225 222 235 220 241 216 211 232 233 176 312 310
270 268 265 261 254 249 243 237 231 225 217 218 218 221 229 204 226 226 217 214 225 229 209 242 259 233 225 224 234 213 230 206 210 216 218 226 233 217 217 211 246 216 218 243 95 250 267
268 265 262 259 256 250 242 232 224 219 213 210 207 219 219 196 188 221 213 242 243 232 257 250 236 258 255 220 219 213 222 216 214 215 230 238 236 253 200 201 216 244 235 243 192 201 221
267 264 260 256 251 246 241 230 219 213 207 200 191 217 193 182 153 206 219 224 236 241 247 252 265 273 244 256 208 217 219 230 209 217 219 233 240 238 238 196 210 214 238 221 258 237 245
264 262 258 254 249 244 237 228 215 206 199 188 185 213 201 159 192 192 216 219 238 235 237 250 256 271 267 265 269 239 251 230 214 213 215 218 219 250 230 210 214 247 222 224 244 220 257
264 259 255 251 245 240 233 230 213 202 191 181 190 158 200 168 198 212 226 237 236 230 234 237 235 248 273 270 276 270 244 272 247 217 219 193 223 216 251 222 212 226 246 230 237 239 224
261 260 251 250 238 235 233 229 215 203 192 185 170 165 170 200 212 205 213 231 235 232 240 242 246 243 253 260 259 281 299 242 269 196 288 199 203 219 236 231 214 233 232 208 250 248 256
259 252 253 228 231 229 229 233 219 204 190 182 180 199 183 186 208 216 211 231 227 231 218 238 248 250 231 248 247 262 289 296 340 308 225 189 219 217 243 241 241 220 232 237 220 227 226
261 255 241 235 231 227 227 223 206 200 188 195 168 200 189 199 204 207 217 225 238 225 217 215 233 238 242 241 239 274 312 274 258 242 251 227 229 233 247 254 242 266 239 230 229 238 246
257 251 243 237 230 225 225 219 206 210 189 187 153 222 195 201 193 200 213 223 229 228 220 224 226 230 241 239 242 118 73 330 319 309 218 224 214 226 238 237 251 259 249 246 240 238 252
255 249 243 236 230 224 219 217 211 202 206 152 178 187 206 201 196 203 214 219 228 228 233 231 227 231 230 96 90 93 97 330 290 288 312 230 221 223 222 237 234 258 252 255 262 269 274
258 253 246 237 230 223 216 212 211 208 201 214 173 200 174 205 203 204 217 219 223 235 236 232 226 235 233 164 210 174 109 74 282 278 278 334 353 347 218 229 253 248 243 250 251 256 248
262 256 247 237 228 219 213 207 206 205 202 195 195 231 173 193 203 211 207 215 220 222 231 234 242 245 211 237 119 233 159 202 163 261 190 269 274 241 257 217 234 218 250 237 246 258 269
262 257 252 242 237 213 204 201 200 198 196 189 193 207 189 183 224 215 209 216 209 214 228 230 224 237 210 222 235 216 232 223 203 179 155 196 259 259 260 243 271 205 221 245 249 241 247
273 264 252 239 213 198 195 192 192 191 190 178 191 205 176 163 192 154 236 225 216 215 216 207 200 209 197 184 229 216 216 227 245 208 163 160 179 227 215 244 246 289 308 231 247 230 269
293 290 253 242 202 190 181 184 183 183 178 166 200 184 189 84 62 302 173 231 215 286 240 206 203 191 187 181 232 231 278 191 205 217 192 173 176 193 246 265 318 292 257 290 298 299 279